Tracking 31032 objects as of 14-Jul-2025
HD Live streaming from Space Station
objects crossing your sky now

ORBCOMM FM 107

Track ORBCOMM FM 107 now!
10-day predictions
ORBCOMM FM 107 is classified as:


NORAD ID: 40087
Int'l Code: 2014-040B
Perigee: 705.3 km
Apogee: 706.5 km
Inclination: 47.0 °
Period: 98.7 minutes
Semi major axis: 7076 km
RCS: Unknown
Launch date: July 14, 2014
Source: United States (US)
Launch site: AIR FORCE EASTERN TEST RANGE (AFETR)
Your satellite tracking list
Your tracking list is empty




NASA's NSSDC Master Catalog

Two Line Element Set (TLE):
1 40087U 14040B   25194.86607710  .00000221  00000-0  83759-4 0  9995
2 40087  47.0044 251.2472 0000818 335.7428  24.3419 14.58276149585033
Source of the keplerian elements: AFSPC